Time,TemperatureF,DewpointF,PressureIn,WindDirection,WindDirectionDegrees,WindSpeedMPH,WindSpeedGustMPH,Humidity,HourlyPrecipIn,Conditions,Clouds,dailyrainin,SoftwareType,DateUTC
2013-12-10 00:05:00,40.1,21.5,30.25,SW,217,1.0,1.0,47,0.00,,,0.00,Wunderground v.1.15,2013-12-10 08:05:00,
2013-12-10 00:15:00,40.1,21.0,30.25,SW,217,0.0,1.0,46,0.00,,,0.00,Wunderground v.1.15,2013-12-10 08:15:00,
2013-12-10 00:25:00,40.1,22.4,30.24,SW,217,1.0,1.0,49,0.00,,,0.00,Wunderground v.1.15,2013-12-10 08:25:00,
2013-12-10 00:35:00,39.8,22.2,30.24,SW,217,1.0,2.0,49,0.00,,,0.00,Wunderground v.1.15,2013-12-10 08:35:00,
2013-12-10 00:45:00,40.8,21.6,30.24,SW,231,2.0,2.0,46,0.00,,,0.00,Wunderground v.1.15,2013-12-10 08:45:00,
2013-12-10 00:55:00,40.9,21.7,30.24,West,266,2.0,2.0,46,0.00,,,0.00,Wunderground v.1.15,2013-12-10 08:55:00,
2013-12-10 01:05:00,41.6,21.8,30.24,West,266,2.0,2.0,45,0.00,,,0.00,Wunderground v.1.15,2013-12-10 09:05:00,
2013-12-10 01:15:00,41.9,21.5,30.24,West,266,2.0,3.0,44,0.00,,,0.00,Wunderground v.1.15,2013-12-10 09:15:00,
2013-12-10 01:25:00,41.9,21.5,30.23,West,266,0.0,1.0,44,0.00,,,0.00,Wunderground v.1.15,2013-12-10 09:25:00,
2013-12-10 01:35:00,41.2,21.4,30.23,West,266,1.0,1.0,45,0.00,,,0.00,Wunderground v.1.15,2013-12-10 09:35:00,
2013-12-10 01:45:00,40.8,22.1,30.23,West,266,1.0,1.0,47,0.00,,,0.00,Wunderground v.1.15,2013-12-10 09:45:00,
2013-12-10 01:55:00,40.8,20.5,30.23,West,266,2.0,2.0,44,0.00,,,0.00,Wunderground v.1.15,2013-12-10 09:55:00,
2013-12-10 02:05:00,41.3,20.5,30.22,West,266,2.0,4.0,43,0.00,,,0.00,Wunderground v.1.15,2013-12-10 10:05:00,
2013-12-10 02:15:00,41.5,20.1,30.22,West,266,2.0,3.0,42,0.00,,,0.00,Wunderground v.1.15,2013-12-10 10:15:00,
2013-12-10 02:20:00,41.8,19.8,30.22,West,266,2.0,2.0,41,0.00,,,0.00,Wunderground v.1.15,2013-12-10 10:20:00,
2013-12-10 02:30:00,41.1,21.3,30.22,West,266,1.0,1.0,45,0.00,,,0.00,Wunderground v.1.15,2013-12-10 10:30:00,
2013-12-10 02:40:00,40.1,21.0,30.22,West,266,1.0,1.0,46,0.00,,,0.00,Wunderground v.1.15,2013-12-10 10:40:00,
2013-12-10 02:50:00,38.5,21.9,30.22,West,266,0.0,0.0,51,0.00,,,0.00,Wunderground v.1.15,2013-12-10 10:50:00,
2013-12-10 02:55:00,37.5,21.5,30.22,West,266,0.0,2.0,52,0.00,,,0.00,Wunderground v.1.15,2013-12-10 10:55:00,
2013-12-10 03:05:00,37.2,20.2,30.21,West,266,1.0,1.0,50,0.00,,,0.00,Wunderground v.1.15,2013-12-10 11:05:00,
2013-12-10 03:15:00,37.6,20.6,30.21,West,266,1.0,1.0,50,0.00,,,0.00,Wunderground v.1.15,2013-12-10 11:15:00,
2013-12-10 03:25:00,37.9,21.8,30.21,West,266,1.0,1.0,52,0.00,,,0.00,Wunderground v.1.15,2013-12-10 11:25:00,
2013-12-10 03:35:00,38.0,20.0,30.21,West,266,1.0,2.0,48,0.00,,,0.00,Wunderground v.1.15,2013-12-10 11:35:00,
2013-12-10 03:45:00,39.3,20.2,30.21,West,266,1.0,1.0,46,0.00,,,0.00,Wunderground v.1.15,2013-12-10 11:45:00,
2013-12-10 03:50:00,39.3,19.7,30.20,West,266,0.0,1.0,45,0.00,,,0.00,Wunderground v.1.15,2013-12-10 11:50:00,
2013-12-10 04:00:00,40.5,19.2,30.20,West,266,0.0,0.0,42,0.00,,,0.00,Wunderground v.1.15,2013-12-10 12:00:00,
2013-12-10 04:05:00,40.5,21.3,30.19,West,266,0.0,0.0,46,0.00,,,0.00,Wunderground v.1.15,2013-12-10 12:05:00,
2013-12-10 04:15:00,39.2,19.6,30.19,West,266,0.0,2.0,45,0.00,,,0.00,Wunderground v.1.15,2013-12-10 12:15:00,
2013-12-10 04:25:00,38.3,19.8,30.19,West,266,0.0,0.0,47,0.00,,,0.00,Wunderground v.1.15,2013-12-10 12:25:00,
2013-12-10 04:35:00,37.6,20.1,30.19,West,266,1.0,1.0,49,0.00,,,0.00,Wunderground v.1.15,2013-12-10 12:35:00,
2013-12-10 04:40:00,37.9,19.4,30.19,West,266,1.0,1.0,47,0.00,,,0.00,Wunderground v.1.15,2013-12-10 12:40:00,
2013-12-10 04:50:00,38.8,19.2,30.19,West,266,1.0,1.0,45,0.00,,,0.00,Wunderground v.1.15,2013-12-10 12:50:00,
2013-12-10 05:00:00,39.3,19.7,30.19,West,266,1.0,2.0,45,0.00,,,0.00,Wunderground v.1.15,2013-12-10 13:00:00,
2013-12-10 05:05:00,39.6,18.9,30.19,West,266,1.0,2.0,43,0.00,,,0.00,Wunderground v.1.15,2013-12-10 13:05:00,
2013-12-10 05:15:00,39.5,19.4,30.19,West,266,0.0,0.0,44,0.00,,,0.00,Wunderground v.1.15,2013-12-10 13:15:00,
2013-12-10 05:25:00,39.8,19.1,30.18,West,266,1.0,2.0,43,0.00,,,0.00,Wunderground v.1.15,2013-12-10 13:25:00,
2013-12-10 05:30:00,39.9,19.2,30.18,West,266,1.0,1.0,43,0.00,,,0.00,Wunderground v.1.15,2013-12-10 13:30:00,
2013-12-10 05:40:00,39.6,18.4,30.18,West,266,1.0,1.0,42,0.00,,,0.00,Wunderground v.1.15,2013-12-10 13:40:00,
2013-12-10 05:50:00,39.9,19.2,30.17,West,266,1.0,1.0,43,0.00,,,0.00,Wunderground v.1.15,2013-12-10 13:50:00,
2013-12-10 06:00:00,40.1,17.7,30.17,West,266,1.0,2.0,40,0.00,,,0.00,Wunderground v.1.15,2013-12-10 14:00:00,
2013-12-10 06:05:00,40.3,17.3,30.17,West,266,2.0,2.0,39,0.00,,,0.00,Wunderground v.1.15,2013-12-10 14:05:00,
2013-12-10 06:15:00,40.9,17.8,30.17,West,266,1.0,2.0,39,0.00,,,0.00,Wunderground v.1.15,2013-12-10 14:15:00,
2013-12-10 06:25:00,40.3,18.4,30.17,West,266,1.0,2.0,41,0.00,,,0.00,Wunderground v.1.15,2013-12-10 14:25:00,
2013-12-10 06:35:00,40.2,17.8,30.17,West,266,1.0,1.0,40,0.00,,,0.00,Wunderground v.1.15,2013-12-10 14:35:00,
2013-12-10 06:40:00,40.1,18.3,30.17,West,266,1.0,2.0,41,0.00,,,0.00,Wunderground v.1.15,2013-12-10 14:40:00,
2013-12-10 06:50:00,40.1,17.7,30.18,West,266,1.0,1.0,40,0.00,,,0.00,Wunderground v.1.15,2013-12-10 14:50:00,
2013-12-10 07:00:00,40.3,16.1,30.18,West,266,1.0,1.0,37,0.00,,,0.00,Wunderground v.1.15,2013-12-10 15:00:00,
2013-12-10 07:05:00,41.1,16.8,30.17,West,266,2.0,2.0,37,0.00,,,0.00,Wunderground v.1.15,2013-12-10 15:05:00,
2013-12-10 07:15:00,40.5,18.0,30.17,West,266,1.0,2.0,40,0.00,,,0.00,Wunderground v.1.15,2013-12-10 15:15:00,
2013-12-10 07:25:00,39.9,18.1,30.18,West,266,0.0,1.0,41,0.00,,,0.00,Wunderground v.1.15,2013-12-10 15:25:00,
2013-12-10 07:35:00,41.1,18.6,30.18,West,266,1.0,1.0,40,0.00,,,0.00,Wunderground v.1.15,2013-12-10 15:35:00,
2013-12-10 07:45:00,41.6,20.7,30.18,West,266,0.0,1.0,43,0.00,,,0.00,Wunderground v.1.15,2013-12-10 15:45:00,
2013-12-10 07:55:00,42.3,20.8,30.18,West,266,0.0,0.0,42,0.00,,,0.00,Wunderground v.1.15,2013-12-10 15:55:00,
2013-12-10 08:00:00,42.8,21.3,30.18,West,266,0.0,0.0,42,0.00,,,0.00,Wunderground v.1.15,2013-12-10 16:00:00,
2013-12-10 08:05:00,43.3,20.6,30.18,West,266,0.0,0.0,40,0.00,,,0.00,Wunderground v.1.15,2013-12-10 16:05:00,
2013-12-10 08:15:00,44.1,23.0,30.18,West,266,0.0,0.0,43,0.00,,,0.00,Wunderground v.1.15,2013-12-10 16:15:00,
2013-12-10 08:25:00,44.3,24.3,30.18,West,266,0.0,0.0,45,0.00,,,0.00,Wunderground v.1.15,2013-12-10 16:25:00,
2013-12-10 08:35:00,44.2,27.2,30.18,West,266,0.0,0.0,51,0.00,,,0.00,Wunderground v.1.15,2013-12-10 16:35:00,
2013-12-10 08:45:00,43.8,26.3,30.18,West,266,0.0,0.0,50,0.00,,,0.00,Wunderground v.1.15,2013-12-10 16:45:00,
2013-12-10 08:50:00,43.9,23.9,30.18,West,266,0.0,0.0,45,0.00,,,0.00,Wunderground v.1.15,2013-12-10 16:50:00,
2013-12-10 08:55:00,44.6,25.1,30.18,West,266,0.0,0.0,46,0.00,,,0.00,Wunderground v.1.15,2013-12-10 16:55:00,
2013-12-10 09:05:00,45.5,24.8,30.18,West,266,0.0,0.0,44,0.00,,,0.00,Wunderground v.1.15,2013-12-10 17:05:00,
2013-12-10 09:15:00,46.5,17.4,30.18,West,266,0.0,0.0,31,0.00,,,0.00,Wunderground v.1.15,2013-12-10 17:15:00,
2013-12-10 09:25:00,48.5,16.0,30.18,West,266,0.0,0.0,27,0.00,,,0.00,Wunderground v.1.15,2013-12-10 17:25:00,
2013-12-10 09:35:00,50.5,16.8,30.18,West,266,0.0,0.0,26,0.00,,,0.00,Wunderground v.1.15,2013-12-10 17:35:00,
2013-12-10 09:45:00,54.1,19.9,30.17,East,98,1.0,2.0,26,0.00,,,0.00,Wunderground v.1.15,2013-12-10 17:45:00,
2013-12-10 09:55:00,54.4,21.9,30.17,East,82,1.0,2.0,28,0.00,,,0.00,Wunderground v.1.15,2013-12-10 17:55:00,
2013-12-10 10:05:00,55.4,18.2,30.17,East,84,1.0,2.0,23,0.00,,,0.00,Wunderground v.1.15,2013-12-10 18:05:00,
2013-12-10 10:15:00,56.5,18.1,30.17,East,92,0.0,1.0,22,0.00,,,0.00,Wunderground v.1.15,2013-12-10 18:15:00,
2013-12-10 10:25:00,56.9,17.3,30.17,ESE,103,1.0,1.0,21,0.00,,,0.00,Wunderground v.1.15,2013-12-10 18:25:00,
2013-12-10 10:35:00,57.2,18.6,30.17,SSE,160,1.0,1.0,22,0.00,,,0.00,Wunderground v.1.15,2013-12-10 18:35:00,
2013-12-10 10:45:00,57.3,19.8,30.16,ESE,111,0.0,1.0,23,0.00,,,0.00,Wunderground v.1.15,2013-12-10 18:45:00,
2013-12-10 10:55:00,57.8,16.9,30.16,ESE,111,0.0,1.0,20,0.00,,,0.00,Wunderground v.1.15,2013-12-10 18:55:00,
2013-12-10 11:05:00,58.7,16.5,30.15,East,98,0.0,3.0,19,0.00,,,0.00,Wunderground v.1.15,2013-12-10 19:05:00,
2013-12-10 11:15:00,59.5,15.9,30.15,East,98,1.0,1.0,18,0.00,,,0.00,Wunderground v.1.15,2013-12-10 19:15:00,
2013-12-10 11:25:00,60.7,19.3,30.14,East,99,0.0,0.0,20,0.00,,,0.00,Wunderground v.1.15,2013-12-10 19:25:00,
2013-12-10 11:35:00,62.0,18.0,30.13,East,79,0.0,2.0,18,0.00,,,0.00,Wunderground v.1.15,2013-12-10 19:35:00,
2013-12-10 11:45:00,62.7,19.8,30.13,East,96,0.0,0.0,19,0.00,,,0.00,Wunderground v.1.15,2013-12-10 19:45:00,
2013-12-10 11:55:00,62.6,27.2,30.13,SW,223,1.0,3.0,26,0.00,,,0.00,Wunderground v.1.15,2013-12-10 19:55:00,
2013-12-10 12:05:00,62.0,26.7,30.11,WSW,241,1.0,3.0,26,0.00,,,0.00,Wunderground v.1.15,2013-12-10 20:05:00,
2013-12-10 12:15:00,61.5,24.3,30.11,West,276,1.0,1.0,24,0.00,,,0.00,Wunderground v.1.15,2013-12-10 20:15:00,
2013-12-10 12:25:00,62.0,24.8,30.11,North,4,0.0,0.0,24,0.00,,,0.00,Wunderground v.1.15,2013-12-10 20:25:00,
2013-12-10 12:35:00,62.4,27.0,30.10,SSW,209,1.0,1.0,26,0.00,,,0.00,Wunderground v.1.15,2013-12-10 20:35:00,
2013-12-10 12:45:00,62.0,29.3,30.10,SW,233,1.0,1.0,29,0.00,,,0.00,Wunderground v.1.15,2013-12-10 20:45:00,
2013-12-10 12:55:00,60.7,29.1,30.09,WSW,254,1.0,1.0,30,0.00,,,0.00,Wunderground v.1.15,2013-12-10 20:55:00,
2013-12-10 13:05:00,59.9,32.2,30.08,WNW,290,0.0,2.0,35,0.00,,,0.00,Wunderground v.1.15,2013-12-10 21:05:00,
2013-12-10 13:15:00,59.6,31.2,30.08,WSW,253,0.0,1.0,34,0.00,,,0.00,Wunderground v.1.15,2013-12-10 21:15:00,
2013-12-10 13:25:00,59.8,30.6,30.08,WSW,252,1.0,2.0,33,0.00,,,0.00,Wunderground v.1.15,2013-12-10 21:25:00,
2013-12-10 13:35:00,59.8,30.6,30.07,West,271,0.0,1.0,33,0.00,,,0.00,Wunderground v.1.15,2013-12-10 21:35:00,
2013-12-10 13:40:00,59.8,30.6,30.07,NW,304,0.0,0.0,33,0.00,,,0.00,Wunderground v.1.15,2013-12-10 21:40:00,
2013-12-10 13:50:00,59.6,34.6,30.06,NW,304,0.0,0.0,39,0.00,,,0.00,Wunderground v.1.15,2013-12-10 21:50:00,
2013-12-10 14:00:00,59.3,33.7,30.06,West,271,0.0,0.0,38,0.00,,,0.00,Wunderground v.1.15,2013-12-10 22:00:00,
2013-12-10 14:05:00,59.2,31.5,30.06,West,266,1.0,2.0,35,0.00,,,0.00,Wunderground v.1.15,2013-12-10 22:05:00,
2013-12-10 14:15:00,58.9,33.3,30.06,North,359,0.0,4.0,38,0.00,,,0.00,Wunderground v.1.15,2013-12-10 22:15:00,
2013-12-10 14:25:00,58.9,34.0,30.06,NNW,328,0.0,0.0,39,0.00,,,0.00,Wunderground v.1.15,2013-12-10 22:25:00,
2013-12-10 14:35:00,58.3,31.4,30.06,NNW,328,0.0,0.0,36,0.00,,,0.00,Wunderground v.1.15,2013-12-10 22:35:00,
2013-12-10 14:40:00,58.1,29.8,30.06,NNW,328,0.0,1.0,34,0.00,,,0.00,Wunderground v.1.15,2013-12-10 22:40:00,
2013-12-10 14:50:00,57.8,31.7,30.06,SSW,194,1.0,1.0,37,0.00,,,0.00,Wunderground v.1.15,2013-12-10 22:50:00,
2013-12-10 15:00:00,57.5,30.0,30.06,SSW,194,0.0,0.0,35,0.00,,,0.00,Wunderground v.1.15,2013-12-10 23:00:00,
2013-12-10 15:05:00,57.5,32.1,30.06,SSW,209,1.0,1.0,38,0.00,,,0.00,Wunderground v.1.15,2013-12-10 23:05:00,
2013-12-10 15:15:00,57.0,31.6,30.06,SSW,209,0.0,1.0,38,0.00,,,0.00,Wunderground v.1.15,2013-12-10 23:15:00,
2013-12-10 15:20:00,56.9,33.4,30.06,SSW,209,0.0,1.0,41,0.00,,,0.00,Wunderground v.1.15,2013-12-10 23:20:00,
2013-12-10 15:30:00,56.6,31.9,30.06,SSW,209,1.0,1.0,39,0.00,,,0.00,Wunderground v.1.15,2013-12-10 23:30:00,
2013-12-10 15:35:00,56.7,32.0,30.06,SSW,209,1.0,1.0,39,0.00,,,0.00,Wunderground v.1.15,2013-12-10 23:35:00,
2013-12-10 15:45:00,56.9,31.5,30.06,SSW,209,1.0,2.0,38,0.00,,,0.00,Wunderground v.1.15,2013-12-10 23:45:00,
2013-12-10 15:55:00,57.0,26.6,30.05,West,259,1.0,2.0,31,0.00,,,0.00,Wunderground v.1.15,2013-12-10 23:55:00,
2013-12-10 16:05:00,57.3,26.1,30.06,West,259,1.0,1.0,30,0.00,,,0.00,Wunderground v.1.15,2013-12-11 00:05:00,
2013-12-10 16:15:00,56.9,24.9,30.06,West,259,0.0,1.0,29,0.00,,,0.00,Wunderground v.1.15,2013-12-11 00:15:00,
2013-12-10 16:25:00,56.3,22.7,30.05,West,259,0.0,0.0,27,0.00,,,0.00,Wunderground v.1.15,2013-12-11 00:25:00,
2013-12-10 16:35:00,55.9,23.2,30.05,West,259,1.0,1.0,28,0.00,,,0.00,Wunderground v.1.15,2013-12-11 00:35:00,
2013-12-10 16:45:00,55.3,22.7,30.05,West,259,1.0,1.0,28,0.00,,,0.00,Wunderground v.1.15,2013-12-11 00:45:00,
2013-12-10 16:55:00,54.7,22.2,30.05,West,259,0.0,2.0,28,0.00,,,0.00,Wunderground v.1.15,2013-12-11 00:55:00,
2013-12-10 17:05:00,54.1,21.7,30.06,West,259,0.0,1.0,28,0.00,,,0.00,Wunderground v.1.15,2013-12-11 01:05:00,
2013-12-10 17:15:00,53.5,21.2,30.06,West,259,0.0,0.0,28,0.00,,,0.00,Wunderground v.1.15,2013-12-11 01:15:00,
2013-12-10 17:20:00,53.3,21.0,30.06,West,259,0.0,0.0,28,0.00,,,0.00,Wunderground v.1.15,2013-12-11 01:20:00,
2013-12-10 17:30:00,53.3,21.0,30.06,West,259,0.0,0.0,28,0.00,,,0.00,Wunderground v.1.15,2013-12-11 01:30:00,
2013-12-10 17:40:00,52.9,20.6,30.06,West,259,0.0,1.0,28,0.00,,,0.00,Wunderground v.1.15,2013-12-11 01:40:00,
2013-12-10 17:45:00,52.6,20.4,30.06,West,259,0.0,1.0,28,0.00,,,0.00,Wunderground v.1.15,2013-12-11 01:45:00,
2013-12-10 17:55:00,51.6,20.3,30.06,West,259,0.0,0.0,29,0.00,,,0.00,Wunderground v.1.15,2013-12-11 01:55:00,
2013-12-10 18:05:00,50.2,24.2,30.07,West,259,0.0,0.0,36,0.00,,,0.00,Wunderground v.1.15,2013-12-11 02:05:00,
2013-12-10 18:15:00,48.5,22.1,30.07,West,259,0.0,0.0,35,0.00,,,0.00,Wunderground v.1.15,2013-12-11 02:15:00,
2013-12-10 18:20:00,48.0,22.3,30.07,West,259,1.0,1.0,36,0.00,,,0.00,Wunderground v.1.15,2013-12-11 02:20:00,
2013-12-10 18:30:00,47.4,21.7,30.07,West,259,1.0,1.0,36,0.00,,,0.00,Wunderground v.1.15,2013-12-11 02:30:00,
2013-12-10 18:40:00,47.0,22.7,30.07,West,259,0.0,0.0,38,0.00,,,0.00,Wunderground v.1.15,2013-12-11 02:40:00,
2013-12-10 18:50:00,47.1,23.4,30.08,West,259,1.0,1.0,39,0.00,,,0.00,Wunderground v.1.15,2013-12-11 02:50:00,
2013-12-10 19:00:00,46.2,23.2,30.08,West,259,0.0,0.0,40,0.00,,,0.00,Wunderground v.1.15,2013-12-11 03:00:00,
2013-12-10 19:05:00,45.7,25.0,30.08,West,259,0.0,0.0,44,0.00,,,0.00,Wunderground v.1.15,2013-12-11 03:05:00,
2013-12-10 19:15:00,44.5,23.4,30.08,West,259,0.0,0.0,43,0.00,,,0.00,Wunderground v.1.15,2013-12-11 03:15:00,
2013-12-10 19:25:00,44.2,24.7,30.08,West,259,0.0,0.0,46,0.00,,,0.00,Wunderground v.1.15,2013-12-11 03:25:00,
2013-12-10 19:35:00,43.5,23.5,30.08,West,259,0.0,1.0,45,0.00,,,0.00,Wunderground v.1.15,2013-12-11 03:35:00,
2013-12-10 19:45:00,43.9,24.4,30.08,ENE,70,1.0,1.0,46,0.00,,,0.00,Wunderground v.1.15,2013-12-11 03:45:00,
2013-12-10 19:50:00,43.8,26.3,30.08,ENE,70,0.0,0.0,50,0.00,,,0.00,Wunderground v.1.15,2013-12-11 03:50:00,
2013-12-10 20:00:00,43.8,23.8,30.08,ENE,70,0.0,0.0,45,0.00,,,0.00,Wunderground v.1.15,2013-12-11 04:00:00,
2013-12-10 20:05:00,43.9,23.9,30.08,ENE,70,0.0,0.0,45,0.00,,,0.00,Wunderground v.1.15,2013-12-11 04:05:00,
2013-12-10 20:15:00,43.3,23.4,30.08,ENE,70,0.0,0.0,45,0.00,,,0.00,Wunderground v.1.15,2013-12-11 04:15:00,
2013-12-10 20:25:00,42.9,23.0,30.09,ENE,70,0.0,2.0,45,0.00,,,0.00,Wunderground v.1.15,2013-12-11 04:25:00,
2013-12-10 20:35:00,42.8,22.4,30.08,ENE,70,1.0,1.0,44,0.00,,,0.00,Wunderground v.1.15,2013-12-11 04:35:00,
2013-12-10 20:40:00,42.6,21.6,30.08,ENE,70,0.0,0.0,43,0.00,,,0.00,Wunderground v.1.15,2013-12-11 04:40:00,
2013-12-10 20:50:00,42.2,21.3,30.08,ENE,70,0.0,0.0,43,0.00,,,0.00,Wunderground v.1.15,2013-12-11 04:50:00,
2013-12-10 21:00:00,41.8,20.9,30.08,ENE,70,0.0,0.0,43,0.00,,,0.00,Wunderground v.1.15,2013-12-11 05:00:00,
2013-12-10 21:05:00,41.8,19.8,30.07,ENE,70,0.0,2.0,41,0.00,,,0.00,Wunderground v.1.15,2013-12-11 05:05:00,
2013-12-10 21:10:00,42.2,20.7,30.07,ENE,70,0.0,0.0,42,0.00,,,0.00,Wunderground v.1.15,2013-12-11 05:10:00,
2013-12-10 21:15:00,42.3,18.5,30.07,ENE,70,0.0,0.0,38,0.00,,,0.00,Wunderground v.1.15,2013-12-11 05:15:00,
2013-12-10 21:20:00,42.5,19.3,30.07,ENE,70,0.0,0.0,39,0.00,,,0.00,Wunderground v.1.15,2013-12-11 05:20:00,
2013-12-10 21:25:00,42.8,18.3,30.07,ENE,70,0.0,0.0,37,0.00,,,0.00,Wunderground v.1.15,2013-12-11 05:25:00,
2013-12-10 21:30:00,42.9,19.0,30.07,ENE,70,0.0,0.0,38,0.00,,,0.00,Wunderground v.1.15,2013-12-11 05:30:00,
2013-12-10 21:40:00,43.3,18.7,30.08,ENE,70,0.0,0.0,37,0.00,,,0.00,Wunderground v.1.15,2013-12-11 05:40:00,
2013-12-10 21:45:00,43.5,18.9,30.08,ENE,70,0.0,0.0,37,0.00,,,0.00,Wunderground v.1.15,2013-12-11 05:45:00,
2013-12-10 21:55:00,43.5,16.9,30.08,ENE,70,0.0,0.0,34,0.00,,,0.00,Wunderground v.1.15,2013-12-11 05:55:00,
2013-12-10 22:05:00,43.8,18.5,30.08,ENE,70,0.0,0.0,36,0.00,,,0.00,Wunderground v.1.15,2013-12-11 06:05:00,
2013-12-10 22:15:00,43.3,18.7,30.08,ENE,70,0.0,0.0,37,0.00,,,0.00,Wunderground v.1.15,2013-12-11 06:15:00,
2013-12-10 22:25:00,43.3,18.7,30.08,ENE,70,0.0,1.0,37,0.00,,,0.00,Wunderground v.1.15,2013-12-11 06:25:00,
2013-12-10 22:30:00,43.3,17.4,30.08,ENE,70,0.0,0.0,35,0.00,,,0.00,Wunderground v.1.15,2013-12-11 06:30:00,
2013-12-10 22:40:00,43.5,17.6,30.08,ENE,70,1.0,1.0,35,0.00,,,0.00,Wunderground v.1.15,2013-12-11 06:40:00,
2013-12-10 22:50:00,42.9,17.7,30.08,ENE,70,0.0,0.0,36,0.00,,,0.00,Wunderground v.1.15,2013-12-11 06:50:00,
2013-12-10 23:00:00,43.3,18.1,30.08,ENE,70,1.0,1.0,36,0.00,,,0.00,Wunderground v.1.15,2013-12-11 07:00:00,
2013-12-10 23:05:00,43.3,18.7,30.08,ENE,70,0.0,1.0,37,0.00,,,0.00,Wunderground v.1.15,2013-12-11 07:05:00,
2013-12-10 23:15:00,43.1,17.9,30.08,ENE,70,0.0,0.0,36,0.00,,,0.00,Wunderground v.1.15,2013-12-11 07:15:00,
2013-12-10 23:25:00,42.2,21.3,30.08,ENE,70,0.0,0.0,43,0.00,,,0.00,Wunderground v.1.15,2013-12-11 07:25:00,
2013-12-10 23:35:00,41.9,19.9,30.07,ENE,70,0.0,0.0,41,0.00,,,0.00,Wunderground v.1.15,2013-12-11 07:35:00,
2013-12-10 23:45:00,42.3,19.1,30.07,ENE,70,0.0,0.0,39,0.00,,,0.00,Wunderground v.1.15,2013-12-11 07:45:00,
2013-12-10 23:55:00,43.3,17.4,30.07,ENE,70,1.0,1.0,35,0.00,,,0.00,Wunderground v.1.15,2013-12-11 07:55:00,